Temperature
23 23 21 20 20 21 23 25 26 26 26 26 27 26 25 23 23 23 23 23 23 22 21 21 21 21 21 21 21 20 21 21 21 21 21 20 20 20 20 20 20 20 20 20 20 20 20 20 20
24 23 22 21 21 22 24 25 25 25 26 26 26 26 24 23 23 23 23 23 22 22 21 21 21 21 21 21 21 21 21 21 21 20 20 20 20 20 20 20 20 20 20 20 20 20 20 20 20
24 23 22 20 22 23 25 25 25 26 26 27 26 25 24 24 24 24 24 23 22 22 22 21 21 21 21 21 21 21 21 20 20 20 20 20 20 20 20 20 20 20 20 20 20 20 20 20 20
24 23 23 21 24 24 24 25 25 26 27 27 26 24 24 24 24 24 24 23 22 22 22 21 21 21 21 21 21 20 20 20 20 20 20 20 20 20 20 20 20 20 20 20 20 20 20 19 19
25 24 22 22 23 24 24 25 26 26 26 26 26 24 23 24 24 24 24 23 23 22 22 21 21 21 21 21 21 21 20 20 20 20 20 20 20 20 20 20 20 20 20 20 20 20 19 19 19
25 22 22 23 24 25 25 27 27 27 26 26 25 23 23 24 24 24 24 23 23 22 22 21 21 21 21 21 21 21 21 21 20 20 20 20 20 20 19 19 19 19 19 19 19 19 19 19 19
24 21 23 24 24 25 27 28 27 26 26 26 26 23 23 24 24 24 23 23 22 22 22 22 21 21 21 21 21 21 21 21 20 20 20 20 20 20 20 19 19 19 19 19 19 19 19 19 19
25 21 23 23 24 25 27 28 28 28 27 27 26 24 24 24 24 23 23 23 22 22 22 22 22 21 21 21 21 21 21 21 20 20 20 20 20 20 20 20 19 19 19 19 19 19 19 19 19
25 21 22 24 24 25 27 27 28 28 27 27 26 26 27 25 24 23 23 22 22 22 22 22 22 22 21 21 21 21 21 21 21 20 20 20 20 20 20 20 19 19 19 19 19 19 18 18 18
24 21 24 24 25 26 27 27 28 28 26 26 26 26 26 25 24 23 23 23 22 22 22 22 22 22 22 21 21 21 21 21 21 21 21 20 20 20 20 19 19 19 19 19 19 18 18 18 18
23 23 24 25 27 27 26 28 28 27 26 27 27 27 26 25 24 23 23 23 24 23 23 22 22 22 22 21 21 21 21 21 21 21 21 20 20 20 20 19 19 19 19 19 18 18 18 18 18
24 24 25 26 28 27 27 28 28 27 29 30 29 29 27 25 25 24 24 23 23 23 23 22 22 22 22 21 21 21 21 21 21 21 20 20 20 20 20 20 19 19 19 19 18 18 18 18 18
24 25 26 27 27 27 27 28 28 28 29 29 28 27 27 26 25 24 24 23 23 23 23 22 22 22 21 21 21 21 21 21 21 20 20 20 19 19 19 19 19 19 19 19 19 18 18 18 18
24 24 25 26 26 27 27 27 27 28 28 28 27 27 27 26 25 24 23 23 23 23 22 22 22 22 21 21 21 20 20 20 20 20 20 19 19 19 19 19 19 19 19 19 18 18 18 18 18
24 23 24 25 25 26 27 26 25 26 27 26 26 25 25 25 24 24 24 24 23 23 22 22 21 21 21 21 20 20 20 19 19 19 19 19 19 19 19 19 19 19 19 18 18 18 18 18 18
23 23 23 24 23 25 26 25 24 25 25 24 24 24 24 24 24 24 23 23 23 23 22 22 21 21 21 20 20 20 19 19 19 19 19 19 19 18 18 18 19 19 19 18 18 18 18 18 18
21 22 23 23 23 24 24 24 22 23 24 23 23 23 23 23 23 23 23 23 23 23 22 22 21 21 21 20 20 19 19 19 19 18 18 18 18 18 18 18 18 18 18 18 18 18 18 17 18
23 23 23 23 23 23 22 22 22 22 22 22 22 22 22 22 22 23 23 23 23 23 22 22 22 21 21 20 20 19 19 19 18 18 18 18 18 18 17 18 18 18 18 18 18 18 18 18 18
23 23 23 24 24 23 22 21 21 21 21 20 20 20 21 21 21 22 22 22 23 23 22 22 22 21 21 20 20 20 19 19 19 18 18 18 18 17 17 17 17 17 17 18 18 18 18 18 17
22 23 23 24 23 23 22 21 20 20 20 19 19 19 20 20 21 22 22 23 23 23 23 23 22 21 21 20 20 20 19 19 18 18 17 17 17 17 17 17 17 17 17 17 17 17 17 17 17
23 23 24 24 23 22 23 21 20 19 19 19 19 19 20 21 22 22 23 23 23 23 23 22 22 21 21 20 20 19 19 18 18 17 17 17 16 16 16 16 16 17 17 17 17 17 17 17 17
23 24 24 23 22 20 21 20 20 19 18 18 18 19 20 21 22 23 23 23 23 23 22 22 21 21 20 20 19 19 18 17 17 16 16 16 16 16 16 16 16 16 16 16 16 16 16 16 16
24 22 22 21 21 19 19 19 19 19 19 18 18 19 20 22 22 23 23 23 22 22 22 21 21 20 20 19 19 18 17 17 16 16 16 16 16 16 16 15 15 16 16 16 16 16 16 15 15
23 21 19 17 17 19 20 19 19 18 19 19 19 20 21 22 22 22 22 22 22 21 21 21 21 20 20 19 18 18 17 16 16 16 15 15 15 15 15 15 15 15 15 15 15 15 15 15 15
21 19 18 18 17 18 18 19 18 19 19 19 19 20 21 22 22 22 22 22 21 21 21 21 20 20 19 19 18 17 17 16 15 15 15 15 15 15 15 14 14 14 14 14 14 15 15 15 14
22 19 18 19 18 17 18 19 19 19 19 20 20 20 20 21 21 21 22 22 22 21 21 21 20 20 19 19 18 17 17 16 15 15 14 14 14 14 14 14 14 14 14 14 14 14 14 14 14
21 19 18 16 17 17 17 18 18 18 18 17 17 18 18 19 20 20 21 21 21 21 21 20 20 19 19 18 18 17 16 16 15 15 14 14 14 13 13 13 13 13 13 13 13 13 14 14 14
21 17 15 16 17 17 18 18 16 15 15 15 14 15 15 17 18 19 19 20 20 20 20 19 19 18 18 18 17 17 16 15 15 14 14 14 13 13 13 13 13 13 13 13 13 13 13 13 13
21 19 15 14 15 16 16 16 16 14 13 13 13 13 14 15 16 16 17 17 18 18 18 18 18 17 17 17 16 16 16 15 15 14 14 14 13 13 13 13 13 12 12 13 13 13 13 13 13
20 19 16 17 17 14 14 14 15 13 12 12 12 12 13 13 14 15 16 16 16 16 16 16 16 16 16 16 16 16 15 15 15 14 14 13 13 13 12 12 12 12 12 12 12 12 12 12 12
Wind_Speed
6 6 3 2 3 5 4 4 2 3 4 2 3 4 6 4 4 3 2 11 15 15 17 21 21 20 19 18 17 17 16 16 16 15 15 14 13 12 11 10 9 9 9 8 8 7 7 7 7
4 4 2 2 5 4 4 4 4 2 1 2 4 4 5 3 3 6 6 9 15 15 15 18 21 20 19 18 17 16 16 15 15 14 13 13 12 11 10 9 8 8 8 7 7 7 7 7 6
4 3 3 4 3 2 4 4 3 2 2 1 3 4 4 4 6 8 7 13 13 12 14 18 22 20 19 18 17 16 16 15 14 13 13 12 11 10 9 8 8 7 7 7 7 7 7 7 6
4 3 4 5 1 3 5 4 2 1 1 2 4 5 4 1 8 8 14 16 15 11 14 18 22 20 19 18 17 16 15 14 14 13 12 11 10 10 9 9 8 8 8 8 7 7 7 7 7
3 4 5 4 4 5 5 5 3 1 1 2 3 5 3 4 8 14 17 17 16 12 12 16 22 20 19 18 18 17 16 14 13 12 12 11 10 10 10 10 10 10 9 9 9 9 9 9 8
4 4 4 2 6 5 5 3 2 1 2 2 3 4 1 2 9 14 16 15 14 14 12 15 21 20 19 18 17 17 16 15 13 13 12 11 11 11 11 11 11 11 11 11 11 11 10 10 10
4 4 2 2 5 5 4 2 2 3 3 3 5 4 0 3 6 11 12 11 11 10 9 10 15 18 19 18 17 16 15 14 13 13 12 12 12 12 12 13 13 13 13 13 13 12 12 12 12
4 4 1 2 3 5 5 3 1 4 3 4 6 7 6 7 9 9 9 9 9 9 9 7 10 12 13 15 16 16 15 14 13 13 13 13 13 13 13 13 13 14 14 14 14 14 14 14 14
4 4 2 4 5 6 5 4 3 2 5 3 3 5 6 15 16 12 10 8 9 11 9 8 7 9 10 11 14 15 15 14 14 13 14 14 12 11 11 13 14 15 16 16 16 16 15 15 15
4 3 7 5 5 5 6 4 3 3 4 2 2 5 13 19 17 16 15 15 15 15 14 10 9 8 9 11 11 11 11 11 12 11 11 10 10 10 12 12 16 17 17 17 18 17 17 15 13
5 6 5 6 6 5 5 4 2 6 5 8 9 11 18 18 16 15 15 15 15 13 12 11 10 8 8 6 6 7 8 8 10 11 11 10 9 9 11 10 12 13 15 14 14 15 14 13 12
4 7 6 6 3 3 4 3 2 6 8 7 10 17 19 20 18 17 15 12 9 9 10 9 10 9 9 7 4 5 5 6 8 11 12 10 7 7 8 9 10 11 11 11 11 10 12 13 14
3 5 6 7 8 6 5 5 4 6 6 4 12 16 18 18 15 11 9 8 8 9 10 9 9 9 8 7 5 5 6 7 9 10 11 12 8 8 7 8 9 11 12 10 9 9 9 10 11
4 6 8 8 7 4 4 3 2 5 1 8 14 15 14 14 12 10 9 9 9 10 10 8 9 9 7 7 7 6 5 7 9 10 13 14 12 9 8 9 8 9 11 11 9 10 9 8 8
4 6 8 5 4 4 2 3 2 5 3 8 11 11 10 9 9 10 10 10 9 8 8 8 8 8 8 8 7 5 5 6 6 10 13 14 14 12 9 9 9 9 10 10 8 7 6 7 7
3 4 5 8 7 5 3 2 6 6 5 7 7 8 7 6 6 6 7 8 8 8 7 8 8 9 9 7 6 5 5 6 7 10 11 14 15 15 10 10 10 9 9 7 6 6 5 7 7
6 4 4 8 7 3 4 1 7 6 6 6 6 6 7 6 4 5 7 8 8 8 8 8 7 7 8 7 6 6 5 6 7 8 9 11 13 13 10 10 9 9 8 8 8 6 5 6 7
1 2 4 6 7 6 6 4 7 7 5 5 6 6 7 7 5 6 7 9 8 8 8 8 8 7 6 5 4 4 5 5 5 5 6 8 8 10 8 8 10 9 8 8 8 8 8 7 7
1 1 3 4 4 5 5 4 6 6 4 5 5 6 7 6 4 5 7 8 8 7 8 8 8 6 4 3 3 3 3 3 3 3 4 5 5 6 5 6 7 7 8 9 10 8 9 8 6
2 1 2 4 5 4 3 4 5 5 2 1 4 6 7 6 5 4 6 6 7 7 7 6 6 5 5 3 2 1 1 2 2 3 4 5 5 5 5 5 6 6 6 8 9 7 5 6 7
2 3 2 2 5 6 3 6 5 4 4 4 3 4 5 7 8 6 5 5 5 6 7 6 6 5 4 2 1 1 2 2 3 3 4 5 6 7 6 7 6 6 6 7 8 8 9 8 7
2 3 2 1 2 3 3 2 5 4 4 2 1 4 5 6 6 6 6 6 7 6 5 4 4 3 2 2 2 2 1 2 3 3 4 6 6 7 7 7 7 7 6 7 8 8 8 9 8
3 4 4 2 3 3 4 1 7 4 2 3 5 7 8 8 8 8 8 8 6 4 4 4 3 3 2 2 3 2 2 3 3 4 6 6 6 7 8 8 7 7 7 8 8 7 8 8 8
4 6 7 6 5 3 3 0 5 4 6 6 7 9 9 9 8 8 7 5 4 3 4 4 4 4 3 3 3 3 3 3 4 5 6 6 6 6 8 8 8 8 7 8 8 8 9 9 9
7 7 6 7 6 4 4 2 7 6 6 6 8 9 9 8 7 7 7 6 5 6 6 6 5 4 4 3 3 3 4 3 4 5 5 6 6 6 8 9 9 9 9 9 9 9 9 9 10
2 7 6 3 4 5 5 4 6 4 5 3 2 2 3 5 5 6 6 5 5 6 6 5 5 5 4 4 4 3 3 2 3 4 4 5 5 7 8 10 10 10 10 9 9 8 9 8 9
4 3 6 6 3 2 6 7 8 9 12 10 7 7 7 7 7 6 5 4 3 3 2 2 3 4 4 4 4 4 4 3 4 4 4 4 5 7 8 9 10 10 10 9 8 7 8 7 8
2 8 6 5 4 4 5 4 5 10 11 11 10 10 10 10 11 10 9 9 8 7 6 5 4 4 4 5 5 4 5 4 4 3 4 5 6 6 8 9 10 10 9 9 8 7 7 7 6
3 4 5 4 4 5 5 5 1 4 6 7 9 9 10 11 12 11 11 10 10 10 10 8 7 7 7 6 6 6 6 5 4 4 4 4 5 6 7 8 9 9 9 8 6 6 6 6 5
1 3 6 2 3 4 4 6 4 5 5 6 8 9 9 11 11 12 12 12 13 12 11 10 9 9 8 8 7 8 7 6 5 5 5 4 5 5 6 7 8 8 8 8 6 4 2 2 3
Wind_Direction
154 145 140 131 66 45 17 339 324 352 357 18 116 116 126 130 178 213 98 142 140 149 160 163 161 159 157 156 155 153 152 152 152 152 152 151 151 150 150 150 150 150 149 148 147 144 141 140 138
145 147 145 80 69 41 332 320 345 333 175 82 65 79 81 81 78 115 130 144 144 149 157 161 162 161 161 161 161 161 160 160 160 160 159 159 159 159 161 162 162 163 163 162 162 161 159 158 157
159 170 97 69 73 152 280 296 310 321 219 183 95 78 106 147 143 151 154 144 142 147 156 164 164 165 166 167 168 168 168 169 169 169 170 171 172 174 176 178 181 183 183 183 183 183 181 180 182
136 71 57 61 7 237 238 264 253 274 307 64 106 87 71 72 155 153 143 146 146 149 157 169 167 169 171 173 174 175 176 177 178 180 182 185 188 192 196 199 204 207 208 207 207 207 207 206 207
73 79 52 23 299 270 253 260 229 213 337 52 98 99 57 10 114 135 145 152 154 154 160 173 172 175 177 179 180 180 182 184 186 190 194 198 203 209 213 216 220 223 225 225 225 226 227 227 228
54 62 66 342 304 296 281 241 181 175 105 92 103 101 45 94 134 148 152 155 158 159 162 175 177 181 183 185 186 187 189 191 194 199 204 210 216 222 227 229 231 232 234 235 237 238 239 241 242
104 90 132 257 294 302 296 292 188 158 155 179 134 113 173 168 160 149 146 144 149 157 159 173 180 185 189 191 194 196 197 200 204 209 214 220 226 232 237 239 240 241 242 243 246 248 250 251 250
124 101 88 275 268 281 290 317 244 164 173 138 130 153 200 188 146 131 123 128 144 157 165 169 175 181 187 194 200 203 206 209 213 218 224 229 235 240 244 245 247 250 252 252 254 256 257 258 257
92 80 215 230 224 264 295 316 316 141 123 132 156 182 177 140 140 135 132 137 160 174 178 176 173 176 181 189 203 207 212 216 219 225 231 235 238 246 252 255 254 257 259 261 261 261 262 262 262
99 155 228 224 215 252 293 276 260 114 131 153 88 82 127 141 153 159 166 172 180 186 189 188 184 179 178 194 204 209 214 218 221 224 232 239 238 241 251 256 260 262 264 265 264 263 262 262 260
167 203 243 254 239 251 275 278 226 152 194 204 188 158 150 156 166 175 181 184 189 189 189 193 193 188 189 199 201 208 215 220 225 227 229 236 243 247 252 255 260 263 266 268 266 265 259 253 251
206 248 245 269 255 244 245 264 235 196 222 210 177 158 159 169 179 186 187 188 182 182 193 192 194 196 201 203 210 214 220 225 231 234 234 233 241 246 248 250 252 252 254 254 256 256 255 252 250
241 271 274 265 280 253 233 227 230 247 263 133 138 154 168 178 184 186 182 178 172 184 190 190 191 199 203 207 218 222 227 233 238 241 240 235 239 247 248 251 251 250 248 245 246 248 250 252 254
265 274 283 282 272 253 212 230 198 272 174 134 149 167 175 179 178 176 178 180 183 188 188 185 190 196 198 211 220 231 230 236 240 243 242 236 238 243 245 248 247 248 246 244 243 247 250 254 257
294 310 320 320 321 289 214 323 335 304 147 145 156 162 164 172 173 184 186 185 185 183 180 182 192 194 203 216 223 232 240 242 244 247 246 241 238 240 242 249 250 250 250 247 248 254 255 259 257
22 21 341 313 335 324 142 256 327 332 130 134 144 150 150 158 166 168 166 169 169 168 173 185 198 198 206 214 225 235 246 246 248 252 253 249 244 241 240 245 250 247 243 240 240 246 255 260 258
26 22 324 314 337 5 96 63 329 6 101 115 126 135 136 127 112 123 140 147 152 159 165 175 187 196 203 210 223 234 236 241 247 252 253 254 252 247 239 243 247 242 238 235 234 227 223 243 249
317 343 317 316 335 43 65 29 358 18 76 104 115 115 118 119 115 117 121 128 134 145 158 166 178 191 192 204 228 244 252 252 250 254 259 262 260 258 248 245 246 242 236 232 222 219 217 224 234
178 219 279 294 339 57 63 35 2 8 57 88 103 112 114 108 103 108 118 128 134 147 157 168 179 190 177 185 214 235 251 259 268 272 282 291 288 284 269 261 253 244 239 236 226 221 224 226 219
183 145 283 307 2 55 56 20 348 3 5 83 126 127 125 119 117 132 146 153 156 162 169 172 183 185 188 191 200 218 258 283 281 301 314 317 317 309 294 274 267 258 251 246 234 226 226 230 206
164 167 205 278 355 26 41 357 352 349 18 46 82 120 135 151 160 174 178 180 171 178 182 182 187 190 199 196 105 29 10 345 331 323 317 316 317 312 300 290 280 269 256 253 247 233 227 233 223
227 240 210 170 64 333 30 304 305 335 1 29 135 159 174 188 191 195 198 203 204 205 195 190 188 192 202 175 168 187 234 273 274 292 298 307 308 308 304 296 286 278 270 265 260 244 234 233 235
192 63 75 67 119 48 25 104 291 331 296 238 221 210 210 211 211 213 215 216 219 215 202 200 189 202 206 193 192 205 244 256 285 299 303 307 308 307 307 301 293 284 276 270 264 255 239 232 232
102 70 50 48 65 55 321 236 282 256 232 224 222 225 227 226 227 233 238 233 226 212 199 193 193 213 219 211 205 210 239 266 293 305 308 311 309 308 310 310 301 290 281 273 265 256 244 236 233
61 69 23 4 10 271 289 230 255 265 252 228 222 228 239 242 243 249 252 240 227 212 203 196 196 219 226 219 223 226 231 244 267 290 301 309 313 313 313 313 306 298 287 280 270 260 251 239 233
92 129 151 208 237 282 324 245 256 313 331 305 267 276 298 294 288 283 273 252 237 225 211 200 203 222 227 228 235 229 225 234 256 272 286 296 300 301 304 309 305 299 293 287 277 266 255 242 233
142 144 160 140 176 260 286 292 311 356 7 8 10 20 5 352 353 346 340 326 310 292 267 232 231 243 243 238 235 234 236 240 253 269 276 288 295 304 309 312 309 304 298 291 282 266 258 246 235
118 141 102 121 161 248 284 292 300 331 341 0 17 20 17 19 22 20 22 22 20 14 7 2 334 297 285 270 255 247 243 244 250 263 283 296 304 309 316 319 317 313 308 300 286 272 260 248 238
20 77 94 110 154 172 250 269 343 340 346 11 23 25 25 28 28 26 25 24 25 24 21 11 357 340 322 299 279 264 253 246 249 261 276 291 301 313 322 325 325 325 322 317 301 281 262 246 236
262 134 138 124 259 190 210 258 32 47 35 44 38 31 29 31 29 27 24 23 22 18 10 4 355 342 326 310 289 270 259 250 249 257 269 282 298 313 323 329 334 339 340 340 336 324 299 241 219
Height
1502 1501 1501 1503 1506 1513 1513 1504 1497 1495 1492 1491 1491 1493 1495 1498 1502 1505 1499 1500 1504 1508 1512 1516 1520 1523 1526 1529 1531 1533 1535 1537 1538 1540 1541 1543 1544 1545 1545 1546 1546 1547 1547 1548 1548 1549 1549 1550 1550
1502 1501 1503 1504 1510 1523 1516 1501 1498 1495 1493 1492 1493 1494 1495 1497 1497 1497 1497 1501 1506 1509 1513 1517 1521 1524 1527 1530 1532 1534 1536 1538 1539 1541 1542 1544 1545 1546 1546 1547 1548 1548 1548 1549 1549 1549 1550 1550 1551
1502 1502 1504 1505 1513 1520 1512 1499 1497 1494 1493 1493 1494 1495 1496 1497 1497 1498 1500 1503 1508 1511 1515 1518 1522 1525 1528 1531 1533 1535 1537 1539 1540 1542 1543 1544 1545 1546 1547 1548 1548 1549 1549 1550 1550 1550 1550 1551 1551
1503 1503 1504 1510 1512 1508 1503 1497 1494 1494 1493 1493 1494 1496 1497 1499 1499 1500 1502 1505 1509 1513 1516 1520 1523 1526 1529 1531 1534 1536 1538 1539 1541 1542 1543 1545 1546 1546 1547 1548 1549 1549 1549 1550 1550 1550 1551 1551 1551
1503 1503 1509 1516 1511 1503 1497 1494 1493 1493 1493 1493 1494 1496 1498 1500 1500 1502 1504 1507 1510 1514 1517 1521 1524 1527 1530 1532 1534 1536 1538 1539 1541 1542 1543 1544 1545 1546 1547 1547 1548 1548 1549 1549 1550 1550 1550 1550 1551
1504 1504 1518 1520 1511 1500 1494 1492 1492 1492 1493 1494 1495 1496 1498 1500 1501 1504 1506 1508 1512 1515 1518 1521 1525 1527 1530 1532 1534 1536 1538 1540 1541 1542 1543 1544 1545 1545 1546 1546 1547 1547 1548 1548 1549 1549 1549 1549 1549
1505 1510 1516 1515 1512 1503 1494 1491 1491 1492 1493 1494 1495 1497 1498 1499 1502 1505 1507 1509 1512 1516 1519 1522 1525 1527 1530 1532 1535 1536 1538 1540 1541 1542 1543 1543 1544 1545 1545 1546 1546 1546 1547 1547 1547 1548 1548 1548 1548
1504 1509 1514 1515 1512 1504 1494 1492 1490 1491 1492 1494 1495 1496 1497 1498 1501 1504 1507 1510 1513 1516 1519 1522 1524 1527 1529 1532 1534 1536 1537 1539 1540 1541 1542 1543 1543 1544 1544 1545 1545 1545 1545 1546 1546 1546 1546 1546 1546
1504 1514 1518 1512 1508 1501 1493 1492 1490 1490 1491 1493 1494 1495 1496 1498 1500 1503 1506 1509 1512 1515 1518 1521 1523 1526 1529 1531 1533 1535 1536 1537 1539 1540 1541 1541 1542 1542 1543 1543 1544 1544 1544 1544 1544 1544 1544 1544 1544
1504 1515 1509 1501 1498 1496 1493 1491 1490 1491 1492 1493 1493 1494 1495 1497 1499 1501 1504 1506 1509 1512 1516 1519 1522 1525 1528 1530 1531 1533 1534 1535 1537 1538 1539 1539 1540 1541 1541 1541 1542 1542 1542 1542 1542 1542 1542 1541 1541
1503 1506 1500 1496 1494 1494 1492 1490 1490 1490 1492 1490 1490 1491 1493 1496 1498 1501 1503 1506 1509 1512 1516 1519 1522 1525 1527 1529 1530 1531 1533 1534 1535 1536 1537 1537 1538 1538 1538 1539 1539 1539 1540 1540 1540 1540 1539 1539 1539
1502 1499 1497 1494 1492 1492 1491 1489 1489 1488 1487 1487 1488 1489 1491 1494 1497 1500 1503 1507 1510 1513 1516 1519 1522 1524 1526 1527 1529 1530 1531 1532 1533 1534 1535 1535 1535 1535 1536 1536 1536 1536 1537 1537 1537 1537 1537 1537 1536
1500 1497 1494 1491 1490 1489 1489 1488 1487 1486 1486 1486 1487 1490 1492 1494 1497 1501 1505 1509 1511 1514 1517 1519 1522 1524 1525 1526 1527 1527 1528 1529 1530 1531 1532 1532 1532 1532 1532 1532 1532 1533 1533 1533 1533 1534 1533 1533 1533
1498 1496 1492 1489 1487 1486 1486 1486 1487 1484 1484 1484 1486 1489 1492 1495 1498 1501 1504 1507 1511 1514 1516 1519 1521 1523 1525 1525 1525 1525 1525 1526 1527 1528 1528 1528 1528 1528 1528 1528 1528 1528 1528 1529 1529 1529 1529 1529 1529
1497 1496 1492 1488 1487 1485 1485 1488 1486 1484 1483 1483 1486 1489 1493 1496 1499 1501 1504 1507 1510 1513 1516 1518 1520 1522 1523 1523 1523 1523 1523 1523 1524 1524 1524 1524 1523 1524 1524 1523 1523 1523 1523 1523 1523 1524 1524 1524 1524
1497 1501 1503 1492 1488 1485 1489 1496 1487 1484 1482 1484 1487 1491 1494 1496 1499 1502 1505 1507 1511 1513 1515 1517 1519 1520 1521 1521 1521 1521 1521 1521 1520 1520 1519 1519 1519 1519 1518 1517 1517 1517 1517 1517 1517 1517 1517 1518 1518
1507 1512 1508 1500 1490 1488 1490 1496 1489 1485 1484 1486 1488 1491 1494 1496 1499 1502 1504 1507 1510 1513 1514 1516 1518 1518 1519 1519 1519 1518 1518 1517 1516 1516 1515 1514 1513 1513 1512 1511 1510 1510 1510 1510 1510 1509 1510 1510 1510
1512 1511 1508 1505 1494 1492 1495 1497 1492 1489 1488 1488 1489 1491 1493 1495 1498 1501 1504 1507 1509 1512 1513 1515 1516 1516 1517 1517 1516 1516 1515 1514 1513 1512 1511 1509 1508 1507 1506 1504 1503 1503 1503 1502 1501 1501 1501 1502 1503
1505 1508 1509 1502 1494 1497 1500 1500 1496 1493 1492 1492 1492 1493 1494 1495 1498 1501 1504 1506 1509 1511 1512 1514 1514 1515 1515 1514 1514 1513 1512 1511 1510 1508 1506 1504 1502 1500 1498 1497 1496 1495 1495 1494 1493 1493 1494 1494 1495
1504 1507 1506 1500 1495 1497 1501 1502 1498 1496 1496 1495 1495 1495 1495 1497 1499 1501 1504 1506 1508 1510 1511 1512 1513 1513 1513 1513 1512 1511 1509 1508 1506 1504 1502 1499 1497 1495 1493 1491 1489 1488 1487 1487 1486 1486 1486 1486 1488
1504 1506 1504 1503 1500 1500 1502 1508 1504 1500 1498 1497 1497 1497 1498 1498 1500 1502 1504 1506 1507 1509 1510 1511 1512 1512 1512 1511 1510 1509 1507 1505 1502 1500 1497 1495 1492 1490 1487 1485 1483 1482 1480 1479 1479 1479 1479 1478 1479
1506 1498 1499 1502 1509 1516 1511 1524 1510 1504 1502 1500 1499 1498 1499 1500 1500 1502 1503 1505 1506 1508 1509 1510 1510 1510 1510 1509 1507 1506 1504 1501 1499 1496 1493 1490 1487 1484 1482 1479 1477 1476 1474 1473 1472 1472 1471 1471 1472
1499 1497 1501 1506 1510 1519 1517 1525 1518 1506 1504 1502 1499 1498 1498 1499 1500 1501 1502 1504 1505 1506 1507 1508 1508 1508 1508 1506 1505 1503 1500 1498 1495 1492 1489 1486 1483 1480 1477 1474 1471 1469 1467 1466 1465 1465 1464 1464 1465
1496 1502 1509 1516 1523 1532 1522 1525 1523 1511 1502 1499 1497 1497 1497 1498 1499 1500 1501 1503 1504 1504 1505 1506 1506 1506 1505 1503 1502 1499 1497 1494 1491 1488 1485 1481 1478 1474 1471 1468 1465 1463 1461 1459 1458 1458 1457 1458 1458
1501 1517 1535 1538 1543 1538 1523 1524 1521 1501 1497 1496 1495 1495 1496 1497 1498 1499 1500 1501 1502 1502 1503 1503 1503 1503 1502 1500 1498 1496 1493 1490 1487 1484 1480 1476 1473 1469 1466 1462 1460 1457 1454 1453 1451 1451 1450 1451 1451
1503 1514 1536 1545 1547 1539 1526 1524 1510 1499 1496 1495 1495 1496 1497 1497 1497 1497 1498 1499 1500 1500 1500 1501 1501 1500 1499 1497 1495 1493 1490 1487 1483 1480 1477 1473 1469 1465 1461 1458 1454 1451 1449 1446 1445 1444 1443 1444 1444
1506 1513 1516 1532 1535 1541 1532 1519 1506 1498 1498 1498 1497 1497 1497 1496 1496 1496 1496 1496 1497 1497 1498 1498 1498 1497 1496 1494 1492 1489 1486 1483 1480 1477 1473 1470 1466 1462 1458 1454 1450 1447 1444 1441 1439 1438 1437 1438 1438
1500 1509 1523 1533 1542 1545 1532 1525 1524 1513 1509 1505 1502 1500 1498 1496 1495 1494 1494 1494 1494 1494 1495 1495 1495 1494 1493 1491 1488 1486 1483 1480 1477 1473 1470 1466 1463 1459 1455 1451 1447 1443 1440 1437 1434 1433 1432 1432 1433
1506 1512 1522 1532 1534 1543 1544 1534 1519 1518 1514 1511 1508 1505 1501 1498 1496 1495 1494 1494 1493 1493 1493 1492 1492 1490 1489 1487 1485 1482 1480 1476 1473 1470 1467 1463 1459 1456 1452 1448 1444 1440 1436 1433 1430 1428 1427 1428 1428
1503 1507 1518 1527 1530 1537 1540 1536 1518 1517 1515 1513 1510 1508 1505 1502 1499 1497 1495 1494 1493 1492 1491 1490 1489 1487 1485 1482 1480 1478 1475 1473 1470 1467 1464 1460 1457 1453 1450 1446 1442 1438 1435 1431 1428 1425 1424 1424 1424